CW9861 Weather Reports


time (UTC)temp
C
wind
direction
speed
KPH
gust
KPH
rain 1hr
cm
rain 24hr
cm
rain mn
cm
humidity
%
barometer
mb
20260507052456 4 299 0.0 0.0 0.00 0.00 0.00 70 1011.7
20260507051956 4 299 0.0 0.0 0.00 0.00 0.00 70 1011.8
20260507051456 4 299 0.0 0.0 0.00 0.00 0.00 69 1011.8
20260507050956 4 299 0.0 0.0 0.00 0.00 0.00 68 1011.8
20260507050456 4 299 0.0 0.0 0.00 0.00 0.00 67 1011.8
20260507045958 4 299 0.0 0.0 0.00 0.00 0.00 67 1011.8
20260507045457 5 299 0.0 0.0 0.00 0.00 0.00 66 1011.8
20260507044957 5 299 0.0 0.0 0.00 0.00 0.00 64 1011.7
20260507044457 5 299 0.0 0.0 0.00 0.00 0.00 63 1011.7
20260507043958 5 299 0.0 0.0 0.00 0.00 0.00 62 1011.7
20260507043458 5 299 0.0 0.0 0.00 0.00 0.00 60 1011.8
20260507042958 5 299 0.0 0.0 0.00 0.00 0.00 59 1011.8
20260507042457 5 299 0.0 0.0 0.00 0.00 0.00 58 1011.8
20260507031957 7 309 0.0 3.2 0.00 0.00 0.00 56 1012.0
20260507031457 7 309 0.0 3.2 0.00 0.00 0.00 56 1012.0
20260507030957 7 305 1.6 3.2 0.00 0.00 0.00 55 1012.0
20260507030457 7 297 0.0 3.2 0.00 0.00 0.00 55 1012.0
20260507025959 7 297 0.0 3.2 0.00 0.00 0.00 55 1012.0
20260507025457 7 295 0.0 3.2 0.00 0.00 0.00 55 1012.0
20260507024957 7 290 0.0 6.4 0.00 0.00 0.00 55 1012.0
20260507024457 7 290 1.6 6.4 0.00 0.00 0.00 54 1012.0
20260507023957 8 284 0.0 4.8 0.00 0.00 0.00 54 1012.0
20260507023457 8 309 1.6 4.8 0.00 0.00 0.00 54 1011.9
20260507022957 8 322 1.6 4.8 0.00 0.00 0.00 54 1012.0
20260507022457 8 295 1.6 3.2 0.00 0.00 0.00 54 1011.9
20260507021957 8 297 0.0 3.2 0.00 0.00 0.00 54 1011.9
20260507021457 8 290 0.0 3.2 0.00 0.00 0.00 54 1011.9
20260507020957 8 244 1.6 3.2 0.00 0.00 0.00 53 1011.8
20260507020457 8 266 1.6 4.8 0.00 0.00 0.00 53 1011.7
20260507015957 8 305 1.6 4.8 0.00 0.00 0.00 53 1011.8
20260507015457 8 308 0.0 3.2 0.00 0.00 0.00 52 1011.7
20260507014958 8 307 1.6 4.8 0.00 0.00 0.00 52 1011.7
20260507014457 8 318 1.6 4.8 0.00 0.00 0.00 52 1011.6
20260507013958 8 308 0.0 4.8 0.00 0.00 0.00 52 1011.7
20260507013456 8 257 1.6 6.4 0.00 0.00 0.00 52 1011.6
20260507012958 8 306 1.6 8.0 0.00 0.00 0.00 51 1011.6
20260507012457 8 326 1.6 8.0 0.00 0.00 0.00 51 1011.6
20260507011956 9 271 1.6 3.2 0.00 0.00 0.00 50 1011.5
20260507011457 9 261 0.0 4.8 0.00 0.00 0.00 50 1011.5
20260507010957 9 297 1.6 6.4 0.00 0.00 0.00 50 1011.5
20260507010458 9 307 3.2 6.4 0.00 0.00 0.00 50 1011.5
20260507005957 9 309 3.2 6.4 0.00 0.00 0.00 49 1011.5
20260507005457 9 315 1.6 6.4 0.00 0.00 0.00 49 1011.5
20260507004956 9 293 1.6 8.0 0.00 0.00 0.00 50 1011.5
20260507004457 9 310 1.6 8.0 0.00 0.00 0.00 50 1011.4
20260507003956 10 258 1.6 4.8 0.00 0.00 0.00 50 1011.5
20260507003456 10 299 1.6 9.7 0.00 0.00 0.00 49 1011.4
20260507002957 10 301 3.2 11.3 0.00 0.00 0.00 48 1011.3
20260507002457 10 261 4.8 16.1 0.00 0.00 0.00 48 1011.3
20260507001956 10 240 1.6 8.0 0.00 0.00 0.00 49 1011.1
20260507001457 10 282 1.6 6.4 0.00 0.00 0.00 49 1011.0
20260507000957 10 329 3.2 9.7 0.00 0.00 0.00 48 1011.0
20260507000458 10 219 3.2 9.7 0.00 0.00 0.00 48 1011.0
20260506235956 10 266 4.8 9.7 0.00 0.00 0.00 48 1011.0
20260506235457 10 320 3.2 9.7 0.00 0.00 0.00 48 1011.0
20260506234958 10 215 3.2 8.0 0.00 0.00 0.00 47 1010.9
20260506234456 10 325 3.2 8.0 0.00 0.00 0.00 47 1011.0
20260506233956 10 282 3.2 14.5 0.00 0.00 0.00 47 1011.0
20260506233457 10 288 4.8 11.3 0.00 0.00 0.00 47 1011.0
20260506232957 10 299 3.2 11.3 0.00 0.00 0.00 47 1011.0
20260506232457 10 295 3.2 8.0 0.00 0.00 0.00 47 1010.9
20260506231957 10 271 3.2 8.0 0.00 0.00 0.00 48 1010.9
20260506231457 10 297 1.6 11.3 0.00 0.00 0.00 48 1010.7
20260506230957 10 326 3.2 9.7 0.00 0.00 0.00 47 1010.8
20260506230457 10 320 1.6 12.9 0.00 0.00 0.00 46 1010.7
20260506225959 10 271 6.4 19.3 0.00 0.00 0.00 45 1010.7
20260506225458 11 225 8.0 19.3 0.00 0.00 0.00 44 1010.8
20260506224958 11 287 4.8 17.7 0.00 0.00 0.00 44 1010.7
20260506224457 11 340 4.8 17.7 0.00 0.00 0.00 42 1010.7
20260506223958 12 307 4.8 14.5 0.00 0.00 0.00 45 1010.9
20260506223458 11 295 6.4 14.5 0.00 0.00 0.00 45 1010.9
20260506222958 11 300 4.8 17.7 0.00 0.00 0.00 44 1010.8
20260506222459 11 212 6.4 17.7 0.00 0.00 0.00 43 1010.9
20260506221958 12 249 4.8 20.9 0.00 0.00 0.00 42 1010.8
20260506221458 13 313 8.0 20.9 0.00 0.00 0.00 42 1010.9
20260506220958 13 288 6.4 14.5 0.00 0.00 0.00 41 1010.8
20260506220458 11 226 4.8 14.5 0.00 0.00 0.00 44 1010.8
20260506215959 12 307 4.8 14.5 0.00 0.00 0.00 42 1010.7
20260506215457 12 326 4.8 17.7 0.00 0.00 0.00 44 1010.8
20260506214957 12 330 8.0 17.7 0.00 0.00 0.00 41 1010.8
20260506214457 11 266 3.2 17.7 0.00 0.00 0.00 44 1010.9
20260506213957 11 223 8.0 19.3 0.00 0.00 0.00 43 1010.7
20260506213457 12 271 8.0 19.3 0.00 0.00 0.00 42 1010.8
20260506212957 11 280 3.2 14.5 0.00 0.00 0.00 44 1010.7
20260506212457 11 341 4.8 22.5 0.00 0.00 0.00 43 1010.7
20260506211957 11 320 6.4 22.5 0.00 0.00 0.00 41 1010.7
20260506211457 12 283 4.8 17.7 0.00 0.00 0.00 41 1010.5
20260506210957 12 334 4.8 9.7 0.00 0.00 0.00 40 1010.6
20260506210457 12 302 6.4 12.9 0.00 0.00 0.00 42 1010.6
20260506205958 11 340 6.4 14.5 0.00 0.00 0.00 42 1010.9
20260506201958 12 271 6.4 17.7 0.00 0.00 0.00 44 1010.9
20260506201458 11 324 8.0 17.7 0.00 0.00 0.00 42 1010.9
20260506200958 12 349 3.2 16.1 0.00 0.00 0.00 43 1011.0
20260506200457 12 238 6.4 20.9 0.00 0.00 0.00 42 1010.9
20260506195957 12 245 8.0 22.5 0.00 0.00 0.00 42 1010.9
20260506195456 12 271 6.4 22.5 0.00 0.00 0.00 43 1011.0
20260506194957 11 334 6.4 17.7 0.00 0.00 0.00 43 1011.2
20260506194456 12 266 4.8 19.3 0.00 0.00 0.00 43 1011.1
20260506193957 11 305 3.2 19.3 0.00 0.00 0.00 44 1011.0
20260506193457 11 212 6.4 19.3 0.00 0.00 0.00 43 1011.0
20260506192956 12 194 4.8 17.7 0.00 0.00 0.00 43 1011.0
20260506192457 12 318 6.4 14.5 0.00 0.00 0.00 43 1011.1
20260506191956 12 290 6.4 16.1 0.00 0.00 0.00 45 1011.0
20260506191457 11 252 6.4 17.7 0.00 0.00 0.00 43 1010.9
20260506190956 12 290 6.4 17.7 0.00 0.00 0.00 45 1011.1
20260506190457 12 321 4.8 14.5 0.00 0.00 0.00 44 1011.1
20260506185957 12 305 3.2 11.3 0.00 0.00 0.00 44 1011.0
20260506185457 12 296 4.8 20.9 0.00 0.00 0.00 42 1011.2
20260506184956 12 242 9.7 19.3 0.00 0.00 0.00 43 1011.1
20260506184457 12 276 4.8 12.9 0.00 0.00 0.00 43 1011.1
20260506183956 12 240 4.8 14.5 0.00 0.00 0.00 42 1010.9
20260506183457 13 234 6.4 24.1 0.00 0.00 0.00 42 1011.1
20260506182958 13 214 9.7 24.1 0.00 0.00 0.00 44 1011.0
20260506182457 12 297 6.4 19.3 0.00 0.00 0.00 44 1011.1
20260506181957 11 207 4.8 14.5 0.00 0.00 0.00 44 1011.0
20260506181457 11 276 4.8 16.1 0.00 0.00 0.00 44 1011.1
20260506180956 11 308 6.4 16.1 0.00 0.00 0.00 43 1011.0
20260506180457 11 296 6.4 12.9 0.00 0.00 0.00 47 1011.1
20260506175959 11 301 4.8 9.7 0.00 0.00 0.00 46 1011.0
20260506175458 11 276 3.2 14.5 0.00 0.00 0.00 48 1011.0
20260506174957 11 257 4.8 14.5 0.00 0.00 0.00 48 1011.0
20260506174458 11 310 3.2 19.3 0.00 0.00 0.00 47 1011.1
20260506173958 11 291 6.4 14.5 0.00 0.00 0.00 46 1011.3
20260506173458 11 307 4.8 8.0 0.00 0.00 0.00 46 1011.3
20260506172958 11 294 3.2 9.7 0.00 0.00 0.00 47 1011.3
20260506172458 11 309 4.8 12.9 0.00 0.00 0.00 48 1011.3
20260506171959 11 240 6.4 12.9 0.00 0.00 0.00 46 1011.4
20260506171457 10 232 3.2 12.9 0.00 0.00 0.00 47 1011.5
20260506170958 11 295 4.8 9.7 0.00 0.00 0.00 46 1011.5
20260506170458 11 299 4.8 14.5 0.00 0.00 0.00 47 1011.5
20260506165958 11 297 4.8 8.0 0.00 0.00 0.00 46 1011.5
20260506165457 11 290 3.2 9.7 0.00 0.00 0.00 47 1011.4
20260506164957 11 242 3.2 9.7 0.00 0.00 0.00 45 1011.4
20260506145958 10 297 4.8 9.7 0.00 0.00 0.00 50 1011.6
20260506145457 11 295 1.6 6.4 0.00 0.00 0.00 48 1011.6
20260506144957 10 306 3.2 6.4 0.00 0.00 0.00 50 1011.5
20260506144458 9 134 3.2 6.4 0.00 0.00 0.00 48 1011.5
20260506143958 10 55 3.2 8.0 0.00 0.00 0.00 53 1011.2
20260506143457 9 101 1.6 4.8 0.00 0.00 0.00 57 1011.3
20260506135457 8 105 1.6 8.0 0.00 0.00 0.00 67 1011.3
20260506134957 8 61 3.2 8.0 0.00 0.00 0.00 66 1011.2
20260506134457 7 132 3.2 8.0 0.00 0.00 0.00 68 1011.1
20260506133957 7 68 4.8 8.0 0.00 0.00 0.00 67 1011.0
20260506133458 7 91 1.6 6.4 0.00 0.00 0.00 69 1011.0
20260506132957 7 316 1.6 9.7 0.00 0.00 0.00 68 1011.1
20260506132458 7 338 1.6 8.0 0.00 0.00 0.00 69 1011.0
20260506131957 7 95 3.2 8.0 0.00 0.00 0.00 69 1011.0
20260506131457 6 73 4.8 8.0 0.00 0.00 0.00 69 1011.1
20260506130958 6 45 3.2 8.0 0.00 0.00 0.00 70 1011.2
20260506130457 6 29 1.6 8.0 0.00 0.00 0.00 70 1011.3
20260506125957 6 77 3.2 8.0 0.00 0.00 0.00 71 1011.3
20260506125457 6 76 3.2 8.0 0.00 0.00 0.00 71 1011.2
20260506121956 3 83 3.2 6.4 0.00 0.00 0.00 80 1010.9
20260506121456 2 351 0.0 6.4 0.00 0.00 0.00 81 1010.8
20260506120957 2 49 1.6 8.0 0.00 0.00 0.00 81 1010.7
20260506120456 2 73 1.6 8.0 0.00 0.00 0.00 82 1010.6
20260506115957 2 67 3.2 6.4 0.00 0.00 0.00 82 1010.6
20260506115457 1 15 1.6 4.8 0.00 0.00 0.00 82 1010.4
20260506114957 1 41 0.0 3.2 0.00 0.00 0.00 81 1010.3
20260506114457 1 309 0.0 3.2 0.00 0.00 0.00 81 1010.2
20260506113957 1 309 0.0 3.2 0.00 0.00 0.00 81 1010.1
20260506113457 1 309 0.0 3.2 0.00 0.00 0.00 81 1009.9
20260506112959 1 313 0.0 1.6 0.00 0.00 0.00 80 1009.8
20260506112457 1 311 0.0 1.6 0.00 0.00 0.00 80 1009.9
20260506111956 1 316 0.0 1.6 0.00 0.00 0.00 79 1009.8
20260506111456 1 305 0.0 0.0 0.00 0.00 0.00 79 1009.6
20260506110956 1 305 0.0 3.2 0.00 0.00 0.00 79 1009.6
20260506110457 1 305 0.0 3.2 0.00 0.00 0.00 78 1009.6
20260506105957 1 291 0.0 1.6 0.00 0.00 0.00 78 1009.7
20260506105457 1 291 0.0 1.6 0.00 0.00 0.00 78 1009.8
20260506104956 1 291 0.0 3.2 0.00 0.00 0.00 78 1009.7
20260506104456 1 291 0.0 3.2 0.00 0.00 0.00 78 1009.7
20260506100458 2 311 0.0 1.6 0.00 0.00 0.00 75 1009.3
20260506095956 2 311 0.0 3.2 0.00 0.00 0.00 75 1009.2
20260506095457 2 311 1.6 3.2 0.00 0.00 0.00 74 1009.1
20260506094957 2 300 1.6 3.2 0.00 0.00 0.00 74 1009.1
20260506094456 2 286 0.0 4.8 0.00 0.00 0.00 74 1009.1
20260506093956 2 287 1.6 4.8 0.00 0.00 0.00 74 1009.0
20260506093457 2 303 1.6 4.8 0.00 0.00 0.00 74 1008.9
20260506092956 2 314 0.0 4.8 0.00 0.00 0.00 74 1008.7
20260506092457 2 315 0.0 4.8 0.00 0.00 0.00 73 1008.5
20260506091956 2 312 0.0 4.8 0.00 0.00 0.00 73 1008.5
20260506091457 3 311 1.6 3.2 0.00 0.00 0.00 73 1008.5
20260506090956 3 314 0.0 3.2 0.00 0.00 0.00 73 1008.5
20260506090456 3 287 0.0 1.6 0.00 0.00 0.00 73 1008.5
20260506085957 3 286 0.0 3.2 0.00 0.00 0.00 72 1008.4
20260506085456 3 286 0.0 3.2 0.00 0.00 0.00 73 1008.4
20260506084956 3 311 0.0 3.2 0.00 0.00 0.00 73 1008.5
20260506084457 3 311 0.0 3.2 0.00 0.00 0.00 73 1008.5
20260506083958 3 310 0.0 3.2 0.00 0.00 0.00 73 1008.4
20260506083456 3 311 0.0 0.0 0.00 0.00 0.00 74 1008.4
20260506082957 3 311 0.0 0.0 0.00 0.00 0.00 74 1008.4
20260506082457 3 302 0.0 0.0 0.00 0.00 0.00 74 1008.4
20260506081958 3 302 0.0 0.0 0.00 0.00 0.00 74 1008.4
20260506081457 3 302 0.0 1.6 0.00 0.00 0.00 74 1008.4
20260506080958 3 302 0.0 3.2 0.00 0.00 0.00 74 1008.6
20260506080457 3 302 1.6 3.2 0.00 0.00 0.00 74 1008.5
20260506073456 3 302 0.0 0.0 0.00 0.00 0.00 72 1008.6
20260506072957 3 302 0.0 0.0 0.00 0.00 0.00 72 1008.5
20260506072456 3 302 0.0 1.6 0.00 0.00 0.00 72 1008.5
20260506071956 3 302 0.0 1.6 0.00 0.00 0.00 71 1008.7
20260506071456 4 302 0.0 0.0 0.00 0.00 0.00 71 1008.6
20260506070957 4 302 0.0 0.0 0.00 0.00 0.00 71 1008.4
20260506070456 4 302 0.0 0.0 0.00 0.00 0.00 70 1008.5
20260506062457 5 302 0.0 1.6 0.00 0.00 0.00 69 1008.8
20260506061956 5 302 0.0 1.6 0.00 0.00 0.00 69 1008.7
20260506061456 5 302 0.0 1.6 0.00 0.00 0.00 69 1008.7
20260506060957 5 295 0.0 1.6 0.00 0.00 0.00 69 1008.8
20260506060456 5 295 0.0 0.0 0.00 0.00 0.00 69 1008.8